Weather in Dunda-Kiret

Russia / Republic of Buryatia     50°35′00″N   107°27′16″E
temp.,
°C
wind,
m/s
gust,
m/s
humid.,
%
clouds,
%
prec.,
mm/h
press.,
hPa
HPBL,
m
20 april, tue
tue2023:00+8s4736100 0.0 1005110
02:00+8ssw4734100 0.0 1004119
05:00+8ssw4733100 0.0 1003147
08:00+8nw2339100 0.0 1006200
11:00+11nnw3235100 0.0 1005778
14:00+14nnw3329100 0.0 10031001
17:00+16nnw23240 0.0 10011261
20:00+6nne34502 0.0 1005114
21 april, wed
wed2123:00+3ene21630 0.0 100618
02:000nw11760 0.0 100820
05:00−2nw23795 0.0 101191
08:00+1n3663100 0.0 1012648
11:00+4n564989 0.0 10131233
14:00+7n763756 0.0 10121523
17:00+4nne884279 0.0 10141384
20:00−1n5105199 0.0 1019858
22 april, thu
thu2223:00−3nne4857100 0.0 1021757
02:00−5nne4788100 0.3 1025555
05:00−5nne2578100 0.3 1026537
08:00−3nne355478 0.4 1028674
11:00+1ne4531100 0.0 10261207
14:00+5nne4425100 0.0 10241763
17:00+4n673199 0.1 10261833
20:00−3n4781100 0.3 1033576
23 april, fri
fri2323:00−4n2494100 3.5 1037305
02:00−5n1395100 5.1 1039218
05:00−5nne2496100 1.0 1040221
08:00−4ne2477100 1.3 1042404
11:000ene3568100 0.0 1041783
14:00+3ene356686 0.0 10401030
17:00+5ene4560100 0.0 10381158
20:00+1ese1181100 0.0 103910
24 april, sat
sat2423:000n1175100 0.0 104011
02:000ne1174100 0.1 104023
05:00−1wsw0180100 0.2 104011
08:00+1e1174100 0.4 1039300
11:00+6ne1268100 0.0 1036747
14:00+8ene2266100 0.0 1032835
17:00+9se2363100 0.0 1029868
20:00+6se1182100 0.0 102811